Year,Month,Day,Hour,Minute,Value (Times are PST for temperature in C)
2012,10,07,00,00,8.60
2012,10,07,00,01,8.60
2012,10,07,00,02,8.60
2012,10,07,00,03,8.60
2012,10,07,00,04,8.60
2012,10,07,00,05,8.60
2012,10,07,00,06,8.60
2012,10,07,00,07,8.60
2012,10,07,00,08,8.60
2012,10,07,00,09,8.70
2012,10,07,00,10,8.70
2012,10,07,00,11,8.70
2012,10,07,00,12,8.70
2012,10,07,00,13,8.70
2012,10,07,00,14,8.70
2012,10,07,00,15,8.70
2012,10,07,00,16,8.70
2012,10,07,00,17,8.60
2012,10,07,00,18,8.60
2012,10,07,00,19,8.60
2012,10,07,00,20,8.60
2012,10,07,00,21,8.60
2012,10,07,00,22,8.60
2012,10,07,00,23,8.60
2012,10,07,00,24,8.60
2012,10,07,00,25,8.60
2012,10,07,00,26,8.60
2012,10,07,00,27,8.60
2012,10,07,00,28,8.60
2012,10,07,00,29,8.60
2012,10,07,00,30,8.60
2012,10,07,00,31,8.60
2012,10,07,00,32,8.60
2012,10,07,00,33,8.50
2012,10,07,00,34,8.50
2012,10,07,00,35,8.50
2012,10,07,00,36,8.50
2012,10,07,00,37,8.50
2012,10,07,00,38,8.50
2012,10,07,00,39,8.50
2012,10,07,00,40,8.50
2012,10,07,00,41,8.40
2012,10,07,00,42,8.40
2012,10,07,00,43,8.40
2012,10,07,00,44,8.30
2012,10,07,00,45,8.30
2012,10,07,00,46,8.30
2012,10,07,00,47,8.30
2012,10,07,00,48,8.30
2012,10,07,00,49,8.30
2012,10,07,00,50,8.30
2012,10,07,00,51,8.30
2012,10,07,00,52,8.30
2012,10,07,00,53,8.30
2012,10,07,00,54,8.30
2012,10,07,00,55,8.30
2012,10,07,00,56,8.30
2012,10,07,00,57,8.30
2012,10,07,00,58,8.30
2012,10,07,00,59,8.30
2012,10,07,01,00,8.30
2012,10,07,01,01,8.30
2012,10,07,01,02,8.30
2012,10,07,01,03,8.30
2012,10,07,01,04,8.30
2012,10,07,01,05,8.20
2012,10,07,01,06,8.20
2012,10,07,01,07,8.20
2012,10,07,01,08,8.20
2012,10,07,01,09,8.20
2012,10,07,01,10,8.20
2012,10,07,01,11,8.20
2012,10,07,01,12,8.20
2012,10,07,01,13,8.20
2012,10,07,01,14,8.20
2012,10,07,01,15,8.20
2012,10,07,01,16,8.20
2012,10,07,01,17,8.20
2012,10,07,01,18,8.20
2012,10,07,01,19,8.20
2012,10,07,01,20,8.20
2012,10,07,01,21,8.30
2012,10,07,01,22,8.30
2012,10,07,01,23,8.30
2012,10,07,01,24,8.30
2012,10,07,01,25,8.30
2012,10,07,01,26,8.30
2012,10,07,01,27,8.30
2012,10,07,01,28,8.30
2012,10,07,01,29,8.40
2012,10,07,01,30,8.40
2012,10,07,01,31,8.40
2012,10,07,01,32,8.40
2012,10,07,01,33,8.40
2012,10,07,01,34,8.40
2012,10,07,01,35,8.40
2012,10,07,01,36,8.30
2012,10,07,01,37,8.30
2012,10,07,01,38,8.30
2012,10,07,01,39,8.30
2012,10,07,01,40,8.30
2012,10,07,01,41,8.20
2012,10,07,01,42,8.20
2012,10,07,01,43,8.20
2012,10,07,01,44,8.20
2012,10,07,01,45,8.10
2012,10,07,01,46,8.10
2012,10,07,01,47,8.00
2012,10,07,01,48,8.00
2012,10,07,01,49,8.00
2012,10,07,01,50,7.90
2012,10,07,01,51,7.90
2012,10,07,01,52,7.90
2012,10,07,01,53,7.90
2012,10,07,01,54,7.90
2012,10,07,01,55,7.90
2012,10,07,01,56,7.90
2012,10,07,01,57,7.90
2012,10,07,01,58,7.90
2012,10,07,01,59,7.90
2012,10,07,02,00,8.00
2012,10,07,02,01,8.00
2012,10,07,02,02,8.00
2012,10,07,02,03,8.10
2012,10,07,02,04,8.10
2012,10,07,02,05,8.10
2012,10,07,02,06,8.10
2012,10,07,02,07,8.20
2012,10,07,02,08,8.20
2012,10,07,02,09,8.20
2012,10,07,02,10,8.20
2012,10,07,02,11,8.20
2012,10,07,02,12,8.20
2012,10,07,02,13,8.20
2012,10,07,02,14,8.20
2012,10,07,02,15,8.20
2012,10,07,02,16,8.20
2012,10,07,02,17,8.20
2012,10,07,02,18,8.20
2012,10,07,02,19,8.20
2012,10,07,02,20,8.20
2012,10,07,02,21,8.20
2012,10,07,02,22,8.20
2012,10,07,02,23,8.20
2012,10,07,02,24,8.20
2012,10,07,02,25,8.20
2012,10,07,02,26,8.20
2012,10,07,02,27,8.20
2012,10,07,02,28,8.20
2012,10,07,02,29,8.20
2012,10,07,02,30,8.20
2012,10,07,02,31,8.20
2012,10,07,02,32,8.20
2012,10,07,02,33,8.20
2012,10,07,02,34,8.20
2012,10,07,02,35,8.20
2012,10,07,02,36,8.20
2012,10,07,02,37,8.20
2012,10,07,02,38,8.30
2012,10,07,02,39,8.30
2012,10,07,02,40,8.30
2012,10,07,02,41,8.30
2012,10,07,02,42,8.30
2012,10,07,02,43,8.30
2012,10,07,02,44,8.30
2012,10,07,02,45,8.30
2012,10,07,02,46,8.30
2012,10,07,02,47,8.30
2012,10,07,02,48,8.30
2012,10,07,02,49,8.30
2012,10,07,02,50,8.30
2012,10,07,02,51,8.30
2012,10,07,02,52,8.30
2012,10,07,02,53,8.30
2012,10,07,02,54,8.30
2012,10,07,02,55,8.30
2012,10,07,02,56,8.30
2012,10,07,02,57,8.30
2012,10,07,02,58,8.30
2012,10,07,02,59,8.30
2012,10,07,03,00,8.30
2012,10,07,03,01,8.30
2012,10,07,03,02,8.30
2012,10,07,03,03,8.30
2012,10,07,03,04,8.30
2012,10,07,03,05,8.30
2012,10,07,03,06,8.30
2012,10,07,03,07,8.30
2012,10,07,03,08,8.30
2012,10,07,03,09,8.30
2012,10,07,03,10,8.20
2012,10,07,03,11,8.20
2012,10,07,03,12,8.20
2012,10,07,03,13,8.20
2012,10,07,03,14,8.20
2012,10,07,03,15,8.20
2012,10,07,03,16,8.20
2012,10,07,03,17,8.20
2012,10,07,03,18,8.20
2012,10,07,03,19,8.20
2012,10,07,03,20,8.20
2012,10,07,03,21,8.20
2012,10,07,03,22,8.20
2012,10,07,03,23,8.20
2012,10,07,03,24,8.20
2012,10,07,03,25,8.20
2012,10,07,03,26,8.20
2012,10,07,03,27,8.20
2012,10,07,03,28,8.20
2012,10,07,03,29,8.20
2012,10,07,03,30,8.20
2012,10,07,03,31,8.20
2012,10,07,03,32,8.20
2012,10,07,03,33,8.10
2012,10,07,03,34,8.10
2012,10,07,03,35,8.10
2012,10,07,03,36,8.10
2012,10,07,03,37,8.10
2012,10,07,03,38,8.20
2012,10,07,03,39,8.20
2012,10,07,03,40,8.20
2012,10,07,03,41,8.20
2012,10,07,03,42,8.20
2012,10,07,03,43,8.20
2012,10,07,03,44,8.20
2012,10,07,03,45,8.20
2012,10,07,03,46,8.20
2012,10,07,03,47,8.20
2012,10,07,03,48,8.20
2012,10,07,03,49,8.20
2012,10,07,03,50,8.10
2012,10,07,03,51,8.20
2012,10,07,03,52,8.20
2012,10,07,03,53,8.20
2012,10,07,03,54,8.20
2012,10,07,03,55,8.20
2012,10,07,03,56,8.20
2012,10,07,03,57,8.20
2012,10,07,03,58,8.20
2012,10,07,03,59,8.30
2012,10,07,04,00,8.30
2012,10,07,04,01,8.30
2012,10,07,04,02,8.30
2012,10,07,04,03,8.30
2012,10,07,04,04,8.30
2012,10,07,04,05,8.30
2012,10,07,04,06,8.30
2012,10,07,04,07,8.30
2012,10,07,04,08,8.30
2012,10,07,04,09,8.30
2012,10,07,04,10,8.30
2012,10,07,04,11,8.30
2012,10,07,04,12,8.20
2012,10,07,04,13,8.20
2012,10,07,04,14,8.20
2012,10,07,04,15,8.20
2012,10,07,04,16,8.10
2012,10,07,04,17,8.10
2012,10,07,04,18,8.10
2012,10,07,04,19,8.10
2012,10,07,04,20,8.00
2012,10,07,04,21,8.00
2012,10,07,04,22,8.00
2012,10,07,04,23,8.00
2012,10,07,04,24,8.00
2012,10,07,04,25,7.90
2012,10,07,04,26,7.90
2012,10,07,04,27,7.90
2012,10,07,04,28,7.90
2012,10,07,04,29,7.90
2012,10,07,04,30,7.90
2012,10,07,04,31,7.90
2012,10,07,04,32,7.90
2012,10,07,04,33,7.90
2012,10,07,04,34,7.90
2012,10,07,04,35,7.90
2012,10,07,04,36,7.90
2012,10,07,04,37,7.90
2012,10,07,04,38,7.90
2012,10,07,04,39,7.90
2012,10,07,04,40,7.90
2012,10,07,04,41,7.90
2012,10,07,04,42,7.90
2012,10,07,04,43,7.80
2012,10,07,04,44,7.80
2012,10,07,04,45,7.80
2012,10,07,04,46,7.80
2012,10,07,04,47,7.80
2012,10,07,04,48,7.80
2012,10,07,04,49,7.80
2012,10,07,04,50,7.80
2012,10,07,04,51,7.80
2012,10,07,04,52,7.70
2012,10,07,04,53,7.70
2012,10,07,04,54,7.70
2012,10,07,04,55,7.70
2012,10,07,04,56,7.70
2012,10,07,04,57,7.70
2012,10,07,04,58,7.70
2012,10,07,04,59,7.70
2012,10,07,05,00,7.70
2012,10,07,05,01,7.70
2012,10,07,05,02,7.60
2012,10,07,05,03,7.60
2012,10,07,05,04,7.60
2012,10,07,05,05,7.60
2012,10,07,05,06,7.50
2012,10,07,05,07,7.50
2012,10,07,05,08,7.50
2012,10,07,05,09,7.40
2012,10,07,05,10,7.40
2012,10,07,05,11,7.40
2012,10,07,05,12,7.40
2012,10,07,05,13,7.30
2012,10,07,05,14,7.30
2012,10,07,05,15,7.30
2012,10,07,05,16,7.30
2012,10,07,05,17,7.30
2012,10,07,05,18,7.30
2012,10,07,05,19,7.30
2012,10,07,05,20,7.30
2012,10,07,05,21,7.30
2012,10,07,05,22,7.30
2012,10,07,05,23,7.30
2012,10,07,05,24,7.30
2012,10,07,05,25,7.30
2012,10,07,05,26,7.30
2012,10,07,05,27,7.30
2012,10,07,05,28,7.30
2012,10,07,05,29,7.30
2012,10,07,05,30,7.30
2012,10,07,05,31,7.30
2012,10,07,05,32,7.40
2012,10,07,05,33,7.40
2012,10,07,05,34,7.40
2012,10,07,05,35,7.40
2012,10,07,05,36,7.40
2012,10,07,05,37,7.40
2012,10,07,05,38,7.40
2012,10,07,05,39,7.40
2012,10,07,05,40,7.40
2012,10,07,05,41,7.30
2012,10,07,05,42,7.30
2012,10,07,05,43,7.30
2012,10,07,05,44,7.30
2012,10,07,05,45,7.30
2012,10,07,05,46,7.30
2012,10,07,05,47,7.30
2012,10,07,05,48,7.30
2012,10,07,05,49,7.20
2012,10,07,05,50,7.30
2012,10,07,05,51,7.20
2012,10,07,05,52,7.30
2012,10,07,05,53,7.30
2012,10,07,05,54,7.30
2012,10,07,05,55,7.30
2012,10,07,05,56,7.20
2012,10,07,05,57,7.20
2012,10,07,05,58,7.20
2012,10,07,05,59,7.20
2012,10,07,06,00,7.20
2012,10,07,06,01,7.20
2012,10,07,06,02,7.20
2012,10,07,06,03,7.20
2012,10,07,06,04,7.20
2012,10,07,06,05,7.20
2012,10,07,06,06,7.20
2012,10,07,06,07,7.20
2012,10,07,06,08,7.20
2012,10,07,06,09,7.30
2012,10,07,06,10,7.30
2012,10,07,06,11,7.30
2012,10,07,06,12,7.30
2012,10,07,06,13,7.30
2012,10,07,06,14,7.30
2012,10,07,06,15,7.40
2012,10,07,06,16,7.40
2012,10,07,06,17,7.40
2012,10,07,06,18,7.50
2012,10,07,06,19,7.50
2012,10,07,06,20,7.50
2012,10,07,06,21,7.60
2012,10,07,06,22,7.60
2012,10,07,06,23,7.60
2012,10,07,06,24,7.60
2012,10,07,06,25,7.60
2012,10,07,06,26,7.60
2012,10,07,06,27,7.60
2012,10,07,06,28,7.60
2012,10,07,06,29,7.60
2012,10,07,06,30,7.60
2012,10,07,06,31,7.60
2012,10,07,06,32,7.60
2012,10,07,06,33,7.60
2012,10,07,06,34,7.60
2012,10,07,06,35,7.60
2012,10,07,06,36,7.60
2012,10,07,06,37,7.70
2012,10,07,06,38,7.70
2012,10,07,06,39,7.70
2012,10,07,06,40,7.70
2012,10,07,06,41,7.80
2012,10,07,06,42,7.80
2012,10,07,06,43,7.80
2012,10,07,06,44,7.90
2012,10,07,06,45,7.90
2012,10,07,06,46,7.90
2012,10,07,06,47,7.90
2012,10,07,06,48,7.90
2012,10,07,06,49,7.90
2012,10,07,06,50,7.90
2012,10,07,06,51,7.90
2012,10,07,06,52,7.90
2012,10,07,06,53,7.90
2012,10,07,06,54,8.00
2012,10,07,06,55,8.00
2012,10,07,06,56,8.00
2012,10,07,06,57,8.00
2012,10,07,06,58,8.00
2012,10,07,06,59,8.00
2012,10,07,07,00,8.00
2012,10,07,07,01,8.10
2012,10,07,07,02,8.00
2012,10,07,07,03,8.00
2012,10,07,07,04,8.00
2012,10,07,07,05,8.00
2012,10,07,07,06,8.00
2012,10,07,07,07,8.00
2012,10,07,07,08,8.00
2012,10,07,07,09,7.90
2012,10,07,07,10,7.90
2012,10,07,07,11,7.90
2012,10,07,07,12,7.90
2012,10,07,07,13,7.90
2012,10,07,07,14,7.80
2012,10,07,07,15,7.80
2012,10,07,07,16,7.80
2012,10,07,07,17,7.80
2012,10,07,07,18,7.70
2012,10,07,07,19,7.70
2012,10,07,07,20,7.70
2012,10,07,07,21,7.60
2012,10,07,07,22,7.60
2012,10,07,07,23,7.60
2012,10,07,07,24,7.60
2012,10,07,07,25,7.60
2012,10,07,07,26,7.60
2012,10,07,07,27,7.60
2012,10,07,07,28,7.60
2012,10,07,07,29,7.60
2012,10,07,07,30,7.60
2012,10,07,07,31,7.50
2012,10,07,07,32,7.50
2012,10,07,07,33,7.50
2012,10,07,07,34,7.40
2012,10,07,07,35,7.40
2012,10,07,07,36,7.40
2012,10,07,07,37,7.40
2012,10,07,07,38,7.40
2012,10,07,07,39,7.40
2012,10,07,07,40,7.40
2012,10,07,07,41,7.40
2012,10,07,07,42,7.40
2012,10,07,07,43,7.40
2012,10,07,07,44,7.40
2012,10,07,07,45,7.40
2012,10,07,07,46,7.40
2012,10,07,07,47,7.40
2012,10,07,07,48,7.40
2012,10,07,07,49,7.50
2012,10,07,07,50,7.50
2012,10,07,07,51,7.50
2012,10,07,07,52,7.60
2012,10,07,07,53,7.60
2012,10,07,07,54,7.60
2012,10,07,07,55,7.70
2012,10,07,07,56,7.70
2012,10,07,07,57,7.70
2012,10,07,07,58,7.80
2012,10,07,07,59,7.80
2012,10,07,08,00,7.90
2012,10,07,08,01,7.90
2012,10,07,08,02,8.00
2012,10,07,08,03,8.00
2012,10,07,08,04,8.10
2012,10,07,08,05,8.10
2012,10,07,08,06,8.20
2012,10,07,08,07,8.20
2012,10,07,08,08,8.30
2012,10,07,08,09,8.30
2012,10,07,08,10,8.40
2012,10,07,08,11,8.50
2012,10,07,08,12,8.50
2012,10,07,08,13,8.60
2012,10,07,08,14,8.60
2012,10,07,08,15,8.70
2012,10,07,08,16,8.70
2012,10,07,08,17,8.80
2012,10,07,08,18,8.80
2012,10,07,08,19,8.90
2012,10,07,08,20,8.90
2012,10,07,08,21,8.90
2012,10,07,08,22,9.00
2012,10,07,08,23,9.00
2012,10,07,08,24,9.10
2012,10,07,08,25,9.10
2012,10,07,08,26,9.10
2012,10,07,08,27,9.20
2012,10,07,08,28,9.20
2012,10,07,08,29,9.30
2012,10,07,08,30,9.30
2012,10,07,08,31,9.40
2012,10,07,08,32,9.50
2012,10,07,08,33,9.50
2012,10,07,08,34,9.60
2012,10,07,08,35,9.70
2012,10,07,08,36,9.70
2012,10,07,08,37,9.80
2012,10,07,08,38,9.90
2012,10,07,08,39,10.00
2012,10,07,08,40,10.10
2012,10,07,08,41,10.10
2012,10,07,08,42,10.20
2012,10,07,08,43,10.30
2012,10,07,08,44,10.30
2012,10,07,08,45,10.40
2012,10,07,08,46,10.50
2012,10,07,08,47,10.60
2012,10,07,08,48,10.70
2012,10,07,08,49,10.70
2012,10,07,08,50,10.80
2012,10,07,08,51,10.80
2012,10,07,08,52,10.90
2012,10,07,08,53,11.00
2012,10,07,08,54,11.00
2012,10,07,08,55,11.10
2012,10,07,08,56,11.20
2012,10,07,08,57,11.30
2012,10,07,08,58,11.40
2012,10,07,08,59,11.40
2012,10,07,09,00,11.50
2012,10,07,09,01,11.60
2012,10,07,09,02,11.70
2012,10,07,09,03,11.80
2012,10,07,09,04,12.00
2012,10,07,09,05,12.10
2012,10,07,09,06,12.20
2012,10,07,09,07,12.30
2012,10,07,09,08,12.50
2012,10,07,09,09,12.60
2012,10,07,09,10,12.70
2012,10,07,09,11,12.80
2012,10,07,09,12,13.00
2012,10,07,09,13,13.10
2012,10,07,09,14,13.20
2012,10,07,09,15,13.30
2012,10,07,09,16,13.40
2012,10,07,09,17,13.50
2012,10,07,09,18,13.60
2012,10,07,09,19,13.70
2012,10,07,09,20,13.80
2012,10,07,09,21,13.90
2012,10,07,09,22,14.00
2012,10,07,09,23,14.10
2012,10,07,09,24,14.20
2012,10,07,09,25,14.30
2012,10,07,09,26,14.40
2012,10,07,09,27,14.50
2012,10,07,09,28,14.60
2012,10,07,09,29,14.70
2012,10,07,09,30,14.80
2012,10,07,09,31,14.90
2012,10,07,09,32,15.00
2012,10,07,09,33,15.10
2012,10,07,09,34,15.10
2012,10,07,09,35,15.20
2012,10,07,09,36,15.30
2012,10,07,09,37,15.30
2012,10,07,09,38,15.40
2012,10,07,09,39,15.40
2012,10,07,09,40,15.40
2012,10,07,09,41,15.40
2012,10,07,09,42,15.40
2012,10,07,09,43,15.40
2012,10,07,09,44,15.40
2012,10,07,09,45,15.40
2012,10,07,09,46,15.30
2012,10,07,09,47,15.30
2012,10,07,09,48,15.30
2012,10,07,09,49,15.30
2012,10,07,09,50,15.30
2012,10,07,09,51,15.30
2012,10,07,09,52,15.30
2012,10,07,09,53,15.40
2012,10,07,09,54,15.40
2012,10,07,09,55,15.50
2012,10,07,09,56,15.50
2012,10,07,09,57,15.50
2012,10,07,09,58,15.60
2012,10,07,09,59,15.60
2012,10,07,10,00,15.60
2012,10,07,10,01,15.60
2012,10,07,10,02,15.60
2012,10,07,10,03,15.60
2012,10,07,10,04,15.60
2012,10,07,10,05,15.70
2012,10,07,10,06,15.70
2012,10,07,10,07,15.80
2012,10,07,10,08,15.80
2012,10,07,10,09,15.90
2012,10,07,10,10,15.90
2012,10,07,10,11,16.00
2012,10,07,10,12,16.10
2012,10,07,10,13,16.20
2012,10,07,10,14,16.30
2012,10,07,10,15,16.40
2012,10,07,10,16,16.50
2012,10,07,10,17,16.60
2012,10,07,10,18,16.70
2012,10,07,10,19,16.80
2012,10,07,10,20,16.90
2012,10,07,10,21,17.00
2012,10,07,10,22,17.10
2012,10,07,10,23,17.30
2012,10,07,10,24,17.40
2012,10,07,10,25,17.50
2012,10,07,10,26,17.50
2012,10,07,10,27,17.60
2012,10,07,10,28,17.70
2012,10,07,10,29,17.70
2012,10,07,10,30,17.80
2012,10,07,10,31,17.80
2012,10,07,10,32,17.80
2012,10,07,10,33,17.90
2012,10,07,10,34,17.90
2012,10,07,10,35,18.00
2012,10,07,10,36,18.10
2012,10,07,10,37,18.10
2012,10,07,10,38,18.20
2012,10,07,10,39,18.30
2012,10,07,10,40,18.30
2012,10,07,10,41,18.20
2012,10,07,10,42,18.20
2012,10,07,10,43,18.20
2012,10,07,10,44,18.10
2012,10,07,10,45,18.10
2012,10,07,10,46,18.10
2012,10,07,10,47,18.00
2012,10,07,10,48,18.00
2012,10,07,10,49,18.00
2012,10,07,10,50,17.90
2012,10,07,10,51,17.90
2012,10,07,10,52,17.80
2012,10,07,10,53,17.90
2012,10,07,10,54,17.90
2012,10,07,10,55,17.90
2012,10,07,10,56,17.90
2012,10,07,10,57,18.00
2012,10,07,10,58,18.00
2012,10,07,10,59,18.10
2012,10,07,11,00,18.10
2012,10,07,11,01,18.10
2012,10,07,11,02,18.10
2012,10,07,11,03,18.10
2012,10,07,11,04,18.10
2012,10,07,11,05,18.00
2012,10,07,11,06,18.00
2012,10,07,11,07,17.90
2012,10,07,11,08,17.90
2012,10,07,11,09,17.80
2012,10,07,11,10,17.80
2012,10,07,11,11,17.70
2012,10,07,11,12,17.70
2012,10,07,11,13,17.60
2012,10,07,11,14,17.60
2012,10,07,11,15,17.60
2012,10,07,11,16,17.50
2012,10,07,11,17,17.50
2012,10,07,11,18,17.50
2012,10,07,11,19,17.50
2012,10,07,11,20,17.60
2012,10,07,11,21,17.60
2012,10,07,11,22,17.70
2012,10,07,11,23,17.70
2012,10,07,11,24,17.80
2012,10,07,11,25,17.80
2012,10,07,11,26,17.80
2012,10,07,11,27,17.80
2012,10,07,11,28,17.90
2012,10,07,11,29,17.90
2012,10,07,11,30,17.90
2012,10,07,11,31,18.00
2012,10,07,11,32,18.00
2012,10,07,11,33,18.10
2012,10,07,11,34,18.20
2012,10,07,11,35,18.20
2012,10,07,11,36,18.20
2012,10,07,11,37,18.20
2012,10,07,11,38,18.20
2012,10,07,11,39,18.10
2012,10,07,11,40,18.10
2012,10,07,11,41,18.10
2012,10,07,11,42,18.10
2012,10,07,11,43,18.10
2012,10,07,11,44,18.10
2012,10,07,11,45,18.10
2012,10,07,11,46,18.20
2012,10,07,11,47,18.20
2012,10,07,11,48,18.20
2012,10,07,11,49,18.20
2012,10,07,11,50,18.20
2012,10,07,11,51,18.20
2012,10,07,11,52,18.20
2012,10,07,11,53,18.30
2012,10,07,11,54,18.30
2012,10,07,11,55,18.30
2012,10,07,11,56,18.30
2012,10,07,11,57,18.30
2012,10,07,11,58,18.30
2012,10,07,11,59,18.40
2012,10,07,12,00,18.40
2012,10,07,12,01,18.50
2012,10,07,12,02,18.50
2012,10,07,12,03,18.60
2012,10,07,12,04,18.70
2012,10,07,12,05,18.80
2012,10,07,12,06,18.90
2012,10,07,12,07,19.00
2012,10,07,12,08,19.10
2012,10,07,12,09,19.20
2012,10,07,12,10,19.30
2012,10,07,12,11,19.30
2012,10,07,12,12,19.40
2012,10,07,12,13,19.40
2012,10,07,12,14,19.50
2012,10,07,12,15,19.50
2012,10,07,12,16,19.60
2012,10,07,12,17,19.60
2012,10,07,12,18,19.60
2012,10,07,12,19,19.70
2012,10,07,12,20,19.70
2012,10,07,12,21,19.80
2012,10,07,12,22,19.80
2012,10,07,12,23,19.90
2012,10,07,12,24,19.90
2012,10,07,12,25,19.90
2012,10,07,12,26,19.90
2012,10,07,12,27,19.80
2012,10,07,12,28,19.80
2012,10,07,12,29,19.80
2012,10,07,12,30,19.80
2012,10,07,12,31,19.90
2012,10,07,12,32,19.90
2012,10,07,12,33,20.00
2012,10,07,12,34,20.10
2012,10,07,12,35,20.20
2012,10,07,12,36,20.20
2012,10,07,12,37,20.30
2012,10,07,12,38,20.30
2012,10,07,12,39,20.30
2012,10,07,12,40,20.30
2012,10,07,12,41,20.40
2012,10,07,12,42,20.40
2012,10,07,12,43,20.50
2012,10,07,12,44,20.60
2012,10,07,12,45,20.60
2012,10,07,12,46,20.70
2012,10,07,12,47,20.60
2012,10,07,12,48,20.70
2012,10,07,12,49,20.70
2012,10,07,12,50,20.60
2012,10,07,12,51,20.60
2012,10,07,12,52,20.60
2012,10,07,12,53,20.60
2012,10,07,12,54,20.70
2012,10,07,12,55,20.70
2012,10,07,12,56,20.70
2012,10,07,12,57,20.70
2012,10,07,12,58,20.70
2012,10,07,12,59,20.80
2012,10,07,13,00,20.70
2012,10,07,13,01,20.70
2012,10,07,13,02,20.70
2012,10,07,13,03,20.60
2012,10,07,13,04,20.60
2012,10,07,13,05,20.60
2012,10,07,13,06,20.60
2012,10,07,13,07,20.60
2012,10,07,13,08,20.60
2012,10,07,13,09,20.50
2012,10,07,13,10,20.50
2012,10,07,13,11,20.40
2012,10,07,13,12,20.30
2012,10,07,13,13,20.30
2012,10,07,13,14,20.30
2012,10,07,13,15,20.30
2012,10,07,13,16,20.30
2012,10,07,13,17,20.20
2012,10,07,13,18,20.20
2012,10,07,13,19,20.20
2012,10,07,13,20,20.10
2012,10,07,13,21,20.10
2012,10,07,13,22,20.10
2012,10,07,13,23,20.10
2012,10,07,13,24,20.10
2012,10,07,13,25,20.10
2012,10,07,13,26,20.10
2012,10,07,13,27,20.10
2012,10,07,13,28,20.10
2012,10,07,13,29,20.20
2012,10,07,13,30,20.20
2012,10,07,13,31,20.20
2012,10,07,13,32,20.20
2012,10,07,13,33,20.20
2012,10,07,13,34,20.20
2012,10,07,13,35,20.20
2012,10,07,13,36,20.30
2012,10,07,13,37,20.30
2012,10,07,13,38,20.30
2012,10,07,13,39,20.40
2012,10,07,13,40,20.40
2012,10,07,13,41,20.50
2012,10,07,13,42,20.50
2012,10,07,13,43,20.60
2012,10,07,13,44,20.60
2012,10,07,13,45,20.60
2012,10,07,13,46,20.70
2012,10,07,13,47,20.70
2012,10,07,13,48,20.70
2012,10,07,13,49,20.70
2012,10,07,13,50,20.70
2012,10,07,13,51,20.80
2012,10,07,13,52,20.80
2012,10,07,13,53,20.80
2012,10,07,13,54,20.80
2012,10,07,13,55,20.90
2012,10,07,13,56,20.90
2012,10,07,13,57,21.00
2012,10,07,13,58,21.10
2012,10,07,13,59,21.10
2012,10,07,14,00,21.10
2012,10,07,14,01,21.20
2012,10,07,14,02,21.20
2012,10,07,14,03,21.30
2012,10,07,14,04,21.30
2012,10,07,14,05,21.30
2012,10,07,14,06,21.30
2012,10,07,14,07,21.30
2012,10,07,14,08,21.30
2012,10,07,14,09,21.30
2012,10,07,14,10,21.20
2012,10,07,14,11,21.20
2012,10,07,14,12,21.20
2012,10,07,14,13,21.20
2012,10,07,14,14,21.20
2012,10,07,14,15,21.20
2012,10,07,14,16,21.20
2012,10,07,14,17,21.30
2012,10,07,14,18,21.30
2012,10,07,14,19,21.20
2012,10,07,14,20,21.20
2012,10,07,14,21,21.20
2012,10,07,14,22,21.20
2012,10,07,14,23,21.20
2012,10,07,14,24,21.20
2012,10,07,14,25,21.20
2012,10,07,14,26,21.30
2012,10,07,14,27,21.30
2012,10,07,14,28,21.30
2012,10,07,14,29,21.20
2012,10,07,14,30,21.10
2012,10,07,14,31,21.00
2012,10,07,14,32,20.90
2012,10,07,14,33,20.70
2012,10,07,14,34,20.60
2012,10,07,14,35,20.40
2012,10,07,14,36,20.30
2012,10,07,14,37,20.10
2012,10,07,14,38,20.00
2012,10,07,14,39,19.90
2012,10,07,14,40,19.80
2012,10,07,14,41,19.70
2012,10,07,14,42,19.60
2012,10,07,14,43,19.40
2012,10,07,14,44,19.20
2012,10,07,14,45,19.00
2012,10,07,14,46,19.00
2012,10,07,14,47,18.90
2012,10,07,14,48,19.00
2012,10,07,14,49,19.10
2012,10,07,14,50,19.10
2012,10,07,14,51,19.20
2012,10,07,14,52,19.20
2012,10,07,14,53,19.20
2012,10,07,14,54,19.20
2012,10,07,14,55,19.20
2012,10,07,14,56,19.20
2012,10,07,14,57,19.10
2012,10,07,14,58,19.10
2012,10,07,14,59,19.10
2012,10,07,15,00,19.20
2012,10,07,15,01,19.20
2012,10,07,15,02,19.30
2012,10,07,15,03,19.40
2012,10,07,15,04,19.40
2012,10,07,15,05,19.40
2012,10,07,15,06,19.40
2012,10,07,15,07,19.40
2012,10,07,15,08,19.40
2012,10,07,15,09,19.40
2012,10,07,15,10,19.40
2012,10,07,15,11,19.50
2012,10,07,15,12,19.60
2012,10,07,15,13,19.60
2012,10,07,15,14,19.60
2012,10,07,15,15,19.60
2012,10,07,15,16,19.60
2012,10,07,15,17,19.60
2012,10,07,15,18,19.60
2012,10,07,15,19,19.60
2012,10,07,15,20,19.70
2012,10,07,15,21,19.70
2012,10,07,15,22,19.80
2012,10,07,15,23,19.80
2012,10,07,15,24,19.90
2012,10,07,15,25,20.00
2012,10,07,15,26,20.00
2012,10,07,15,27,20.10
2012,10,07,15,28,20.10
2012,10,07,15,29,20.10
2012,10,07,15,30,20.10
2012,10,07,15,31,20.20
2012,10,07,15,32,20.20
2012,10,07,15,33,20.30
2012,10,07,15,34,20.30
2012,10,07,15,35,20.40
2012,10,07,15,36,20.40
2012,10,07,15,37,20.50
2012,10,07,15,38,20.50
2012,10,07,15,39,20.60
2012,10,07,15,40,20.70
2012,10,07,15,41,20.70
2012,10,07,15,42,20.70
2012,10,07,15,43,20.70
2012,10,07,15,44,20.70
2012,10,07,15,45,20.70
2012,10,07,15,46,20.70
2012,10,07,15,47,20.70
2012,10,07,15,48,20.70
2012,10,07,15,49,20.70
2012,10,07,15,50,20.60
2012,10,07,15,51,20.50
2012,10,07,15,52,20.40
2012,10,07,15,53,20.40
2012,10,07,15,54,20.30
2012,10,07,15,55,20.30
2012,10,07,15,56,20.30
2012,10,07,15,57,20.30
2012,10,07,15,58,20.30
2012,10,07,15,59,20.30
2012,10,07,16,00,20.20
2012,10,07,16,01,20.20
2012,10,07,16,02,20.20
2012,10,07,16,03,20.20
2012,10,07,16,04,20.20
2012,10,07,16,05,20.20
2012,10,07,16,06,20.20
2012,10,07,16,07,20.20
2012,10,07,16,08,20.20
2012,10,07,16,09,20.20
2012,10,07,16,10,20.20
2012,10,07,16,11,20.20
2012,10,07,16,12,20.20
2012,10,07,16,13,20.20
2012,10,07,16,14,20.30
2012,10,07,16,15,20.30
2012,10,07,16,16,20.40
2012,10,07,16,17,20.40
2012,10,07,16,18,20.40
2012,10,07,16,19,20.40
2012,10,07,16,20,20.40
2012,10,07,16,21,20.50
2012,10,07,16,22,20.50
2012,10,07,16,23,20.50
2012,10,07,16,24,20.50
2012,10,07,16,25,20.50
2012,10,07,16,26,20.40
2012,10,07,16,27,20.40
2012,10,07,16,28,20.40
2012,10,07,16,29,20.40
2012,10,07,16,30,20.40
2012,10,07,16,31,20.30
2012,10,07,16,32,20.30
2012,10,07,16,33,20.30
2012,10,07,16,34,20.30
2012,10,07,16,35,20.20
2012,10,07,16,36,20.20
2012,10,07,16,37,20.20
2012,10,07,16,38,20.20
2012,10,07,16,39,20.20
2012,10,07,16,40,20.20
2012,10,07,16,41,20.20
2012,10,07,16,42,20.20
2012,10,07,16,43,20.20
2012,10,07,16,44,20.20
2012,10,07,16,45,20.30
2012,10,07,16,46,20.30
2012,10,07,16,47,20.30
2012,10,07,16,48,20.30
2012,10,07,16,49,20.30
2012,10,07,16,50,20.30
2012,10,07,16,51,20.30
2012,10,07,16,52,20.30
2012,10,07,16,53,20.30
2012,10,07,16,54,20.30
2012,10,07,16,55,20.30
2012,10,07,16,56,20.40
2012,10,07,16,57,20.40
2012,10,07,16,58,20.40
2012,10,07,16,59,20.40
2012,10,07,17,00,20.40
2012,10,07,17,01,20.40
2012,10,07,17,02,20.40
2012,10,07,17,03,20.40
2012,10,07,17,04,20.50
2012,10,07,17,05,20.50
2012,10,07,17,06,20.50
2012,10,07,17,07,20.50
2012,10,07,17,08,20.50
2012,10,07,17,09,20.50
2012,10,07,17,10,20.50
2012,10,07,17,11,20.40
2012,10,07,17,12,20.40
2012,10,07,17,13,20.40
2012,10,07,17,14,20.40
2012,10,07,17,15,20.40
2012,10,07,17,16,20.40
2012,10,07,17,17,20.40
2012,10,07,17,18,20.40
2012,10,07,17,19,20.40
2012,10,07,17,20,20.40
2012,10,07,17,21,20.40
2012,10,07,17,22,20.40
2012,10,07,17,23,20.40
2012,10,07,17,24,20.50
2012,10,07,17,25,20.50
2012,10,07,17,26,20.50
2012,10,07,17,27,20.40
2012,10,07,17,28,20.40
2012,10,07,17,29,20.40
2012,10,07,17,30,20.40
2012,10,07,17,31,20.40
2012,10,07,17,32,20.40
2012,10,07,17,33,20.40
2012,10,07,17,34,20.40
2012,10,07,17,35,20.40
2012,10,07,17,36,20.30
2012,10,07,17,37,20.30
2012,10,07,17,38,20.30
2012,10,07,17,39,20.30
2012,10,07,17,40,20.30
2012,10,07,17,41,20.30
2012,10,07,17,42,20.30